Wind_Speed
46 45 45 47 46 44 45 46 50 51 51 50 52 54 54 54 54 54 54 54 54 54 54 55 55 56 56 57 58 59 60 62 63 65 66 67 67 68 69 70 69 69 69 69
50 48 50 52 48 46 47 48 50 53 53 51 54 56 56 57 57 57 56 56 55 56 55 55 56 57 57 57 58 59 61 62 65 66 67 67 68 68 69 68 68 68 67 67
54 52 55 54 48 48 50 50 52 54 54 55 57 57 57 58 58 58 57 57 57 57 57 57 57 58 59 59 61 62 63 64 66 67 67 67 67 68 68 67 66 66 66 63
57 57 59 54 51 51 53 53 52 54 56 57 58 57 57 58 58 58 58 58 58 58 59 59 60 61 62 62 63 63 64 66 67 67 66 66 66 66 65 64 63 63 61 59
57 58 59 54 52 54 56 55 53 55 57 58 58 57 56 57 57 58 58 59 60 61 61 61 62 63 63 63 64 65 65 65 65 65 65 64 63 62 61 60 59 58 57 56
53 56 58 55 53 54 55 56 55 57 57 57 56 56 55 55 56 57 58 59 61 61 61 61 62 63 63 63 63 63 63 63 62 62 61 60 59 58 58 57 56 55 54 54
50 53 54 53 53 54 55 56 56 56 56 55 56 57 57 56 57 57 58 58 58 59 59 59 59 59 58 58 58 58 58 57 57 57 56 56 56 56 56 55 53 53 53 52
49 51 51 51 53 53 54 54 54 54 55 56 57 57 57 57 56 56 55 55 56 55 54 54 55 54 53 53 54 54 54 54 54 54 54 55 55 55 54 53 52 51 51 51
48 49 49 50 51 52 53 53 53 53 53 54 54 55 54 54 53 53 52 52 52 51 50 49 50 51 52 51 52 52 52 53 54 54 54 54 53 53 51 50 49 49 49 49
47 46 47 48 49 49 50 51 51 51 51 51 51 51 50 49 49 49 49 48 48 48 48 48 49 50 51 51 51 52 52 53 54 53 53 53 53 52 51 50 49 49 48 48
47 46 47 46 47 48 49 50 50 50 51 50 50 49 48 47 46 46 47 47 48 48 47 47 49 50 51 51 52 53 53 53 53 54 54 55 55 54 53 52 51 49 47 46
48 48 50 49 48 49 49 49 49 49 49 48 48 48 48 47 47 48 48 48 48 47 48 49 49 50 51 53 54 54 54 55 56 56 56 56 55 54 53 52 50 48 46 44
50 50 51 51 51 51 51 51 50 50 49 49 49 48 48 48 48 48 49 49 48 48 49 50 50 51 53 54 55 56 56 56 57 57 57 56 56 55 54 53 50 47 44 42
52 52 52 52 52 53 53 53 52 51 51 50 49 49 49 48 49 49 49 50 50 51 51 52 52 53 54 54 55 56 56 56 58 58 58 57 56 55 54 53 50 46 42 40
54 54 54 54 54 54 53 53 51 50 50 50 50 49 49 49 50 50 51 51 51 51 52 53 53 53 54 55 55 56 57 58 59 59 58 56 55 54 53 50 47 43 40 37
55 55 55 54 54 53 53 52 51 50 50 49 49 49 50 50 50 50 51 51 51 52 53 53 54 54 54 55 56 57 58 59 61 59 57 55 54 52 49 46 44 40 36 34
55 54 54 54 53 53 53 53 52 51 50 49 49 49 49 49 49 50 50 51 52 53 54 54 54 54 55 56 57 58 59 60 59 58 56 54 52 50 47 44 40 36 33 32
54 54 53 53 53 53 53 53 53 52 51 51 50 50 50 51 51 51 51 51 52 52 52 52 53 54 54 56 57 58 58 58 57 55 54 52 50 46 44 40 36 33 31 31
52 52 52 52 51 51 51 51 51 51 51 51 50 50 50 51 52 52 52 52 52 51 50 50 51 52 53 55 56 56 56 56 55 55 54 50 46 42 39 35 31 29 29 28
50 50 50 49 49 50 50 50 50 50 50 51 50 50 50 50 51 50 50 49 50 49 49 50 51 52 53 54 54 54 55 55 56 54 51 47 43 37 33 30 27 26 25 24
48 47 47 47 48 48 48 49 49 49 50 50 50 49 49 49 48 48 47 46 46 47 48 49 50 51 52 52 53 54 54 54 53 50 45 41 36 31 27 25 24 23 21 21
46 46 46 47 47 47 48 49 49 49 48 48 48 48 47 46 45 45 45 45 45 46 47 47 48 49 50 51 52 52 52 51 49 45 39 34 29 25 22 20 20 19 18 18
44 45 45 46 46 46 46 47 47 46 45 45 45 45 44 43 43 42 41 42 43 44 45 45 46 47 48 49 50 49 48 46 42 38 32 28 24 21 18 17 17 16 16 15
43 43 44 44 44 44 44 43 43 43 43 43 43 43 42 41 39 40 40 41 42 42 42 43 44 45 46 47 47 46 44 41 37 33 29 26 23 19 16 15 14 13 14 13
43 43 42 42 42 42 42 41 40 40 40 40 40 40 40 39 38 38 38 38 39 39 40 42 43 44 45 45 44 43 40 37 33 29 27 23 18 14 12 11 11 11 11 11
42 42 41 41 41 40 40 39 38 38 38 37 36 36 36 36 36 36 36 36 37 38 40 41 41 42 42 42 41 38 35 32 28 26 23 18 14 10 8 8 9 10 9 8
40 40 40 39 39 39 39 38 37 36 36 36 34 34 34 35 35 35 34 35 36 38 39 39 39 39 39 38 37 34 32 29 26 23 18 13 10 7 5 6 7 8 8 7
Wind_Direction
286 287 287 286 287 291 292 293 292 293 293 296 295 294 295 295 296 296 296 295 295 295 294 294 293 292 292 291 292 293 294 296 298 300 302 304 306 308 309 311 313 315 316 317
285 286 285 285 289 292 291 291 291 291 291 293 292 293 295 296 297 297 298 298 297 297 297 296 295 294 294 293 293 294 295 296 298 300 302 305 306 308 310 311 313 314 316 316
286 286 284 286 290 289 288 288 289 290 291 290 291 293 294 295 296 298 298 299 299 299 298 298 296 295 294 294 295 295 296 298 299 301 303 305 306 308 310 311 312 313 315 316
288 288 287 290 291 291 289 289 290 290 290 290 292 294 295 297 298 299 300 300 300 299 298 297 297 296 296 296 297 297 298 299 301 303 304 305 306 308 309 310 312 313 315 315
289 290 292 294 295 292 291 291 291 290 290 291 292 293 295 298 300 301 301 301 300 299 298 298 297 297 296 297 298 299 300 301 302 303 304 305 306 308 309 311 312 313 315 315
289 290 293 297 296 294 293 293 293 291 292 292 294 295 297 297 298 299 299 299 299 298 298 299 298 297 297 298 299 300 301 302 303 303 304 305 307 308 310 311 312 313 314 315
293 294 297 299 297 296 295 296 294 293 293 293 294 295 297 297 298 299 300 300 300 300 300 300 299 299 299 300 301 302 304 305 306 306 306 306 307 309 310 310 312 312 314 315
297 298 301 301 299 297 296 294 293 292 292 293 294 295 297 298 300 300 301 302 302 302 302 302 301 301 301 302 303 305 306 307 307 307 308 308 308 309 310 311 311 312 313 314
299 301 301 300 299 298 296 295 294 293 293 294 296 297 298 299 300 301 302 303 303 304 304 303 303 304 305 305 305 306 307 307 307 307 308 308 308 310 311 312 312 312 313 314
300 302 301 300 298 298 296 295 295 295 296 296 297 298 299 301 302 302 303 304 304 305 305 305 305 306 306 307 307 308 308 308 308 308 308 308 308 309 309 310 310 310 311 312
300 301 300 301 300 300 298 297 296 296 296 297 297 299 301 302 302 303 304 305 306 306 306 306 307 307 307 308 308 309 309 309 308 308 308 307 308 308 307 307 308 308 309 310
300 300 301 302 301 300 299 298 296 295 295 296 296 298 299 301 302 303 304 305 307 308 308 308 308 308 307 307 308 309 309 308 308 308 307 307 306 305 305 305 305 305 306 307
296 297 298 300 299 299 299 299 298 296 295 295 296 297 299 301 301 302 304 305 307 308 309 309 309 309 309 309 309 309 309 308 308 307 307 306 304 304 303 302 302 302 302 304
292 294 295 296 296 297 297 297 297 296 295 294 295 297 299 300 301 302 303 305 306 307 308 308 309 310 310 310 310 310 309 308 308 307 306 305 303 302 301 300 298 298 298 299
290 291 293 293 294 295 296 296 296 295 294 295 295 296 298 299 300 301 302 304 306 306 307 308 309 310 310 310 310 310 309 309 309 308 307 305 303 302 300 298 296 295 294 295
288 289 291 292 293 293 294 294 295 294 295 295 296 296 297 299 300 301 303 304 305 306 307 308 309 309 309 309 310 310 310 310 310 309 308 306 303 302 299 296 294 292 289 290
286 287 289 290 291 291 291 292 292 294 294 295 296 296 297 298 300 301 302 303 305 306 307 308 308 309 309 310 311 311 312 312 311 310 309 306 303 301 298 295 291 288 284 284
284 286 287 288 288 289 289 290 291 292 294 294 295 296 297 298 299 300 301 303 304 305 307 308 309 309 310 312 312 313 313 314 313 312 311 307 304 301 297 293 287 283 281 281
283 284 285 287 287 288 289 290 291 292 294 295 296 296 297 298 299 301 302 303 303 305 306 307 308 310 312 312 313 314 314 315 314 312 312 309 305 300 295 289 283 279 276 276
283 284 285 286 287 288 288 290 291 292 294 295 296 297 298 299 300 301 302 303 304 305 307 308 309 311 312 313 314 315 315 315 315 313 312 309 304 299 292 284 277 273 271 272
283 284 285 286 287 288 289 291 292 293 295 297 297 298 299 300 300 302 302 303 304 306 308 309 310 312 314 315 316 316 316 317 316 315 313 311 307 301 291 279 271 268 266 266
284 285 285 286 287 289 290 292 293 296 297 298 299 300 300 301 301 302 303 304 306 306 308 309 311 314 316 317 318 318 319 319 320 319 316 313 310 303 292 277 267 263 258 258
286 286 286 287 288 289 291 292 294 296 298 299 300 300 300 301 301 302 303 304 306 307 309 310 313 315 317 319 321 321 322 322 322 321 319 317 314 306 290 274 264 254 250 252
287 286 286 287 288 290 291 293 295 297 298 299 300 300 300 300 301 302 305 306 307 309 311 312 315 317 319 321 323 324 323 323 322 321 321 318 313 304 287 271 255 244 243 246
287 288 288 288 289 290 292 293 296 297 298 299 300 300 299 300 302 304 305 307 308 310 312 314 316 319 320 322 324 325 325 324 323 321 321 317 310 300 285 264 245 236 236 242
288 288 289 289 290 291 293 294 296 297 298 298 298 298 298 300 303 305 306 308 310 312 314 316 317 320 322 324 326 328 328 328 326 324 321 316 304 294 279 252 234 227 230 234
287 287 288 289 291 292 294 296 297 297 297 297 297 296 297 299 302 304 306 308 310 313 315 316 318 320 323 326 328 330 330 329 328 325 319 310 297 280 255 230 220 221 220 221
Height
5772 5770 5766 5763 5761 5760 5755 5751 5745 5742 5738 5736 5729 5723 5720 5717 5713 5709 5706 5701 5697 5692 5687 5682 5677 5672 5667 5661 5656 5650 5644 5638 5631 5623 5616 5609 5602 5593 5585 5576 5566 5557 5547 5537
5760 5760 5754 5750 5753 5750 5745 5740 5735 5730 5727 5725 5717 5712 5708 5704 5700 5696 5692 5688 5683 5679 5674 5669 5663 5658 5653 5647 5641 5635 5629 5623 5616 5609 5602 5595 5587 5579 5571 5562 5553 5543 5534 5524
5746 5746 5741 5740 5745 5739 5734 5730 5724 5718 5716 5710 5706 5702 5697 5692 5688 5683 5679 5674 5670 5665 5660 5655 5649 5643 5638 5632 5626 5620 5614 5608 5601 5594 5588 5580 5573 5565 5557 5548 5539 5530 5521 5511
5733 5731 5725 5732 5730 5726 5719 5717 5713 5706 5701 5696 5693 5689 5684 5679 5675 5670 5665 5660 5655 5650 5645 5640 5634 5628 5623 5618 5611 5605 5599 5593 5587 5580 5573 5566 5558 5551 5542 5534 5526 5517 5508 5499
5720 5715 5710 5716 5717 5709 5703 5701 5700 5692 5687 5683 5679 5676 5673 5667 5661 5656 5651 5646 5641 5635 5630 5625 5619 5613 5608 5602 5596 5590 5584 5578 5572 5565 5558 5551 5544 5536 5528 5520 5512 5504 5496 5487
5710 5703 5699 5704 5701 5694 5690 5686 5684 5677 5672 5669 5665 5661 5661 5656 5650 5645 5639 5633 5627 5622 5616 5610 5603 5597 5592 5587 5581 5575 5569 5563 5557 5550 5543 5536 5529 5522 5515 5507 5499 5492 5484 5475
5699 5691 5689 5692 5686 5680 5677 5674 5667 5662 5658 5655 5651 5647 5644 5641 5637 5632 5626 5620 5613 5607 5601 5595 5588 5582 5577 5572 5566 5560 5554 5548 5542 5535 5528 5522 5515 5509 5502 5494 5487 5480 5472 5464
5688 5682 5682 5678 5672 5668 5663 5659 5654 5649 5645 5641 5637 5634 5630 5627 5622 5617 5612 5606 5599 5593 5587 5581 5574 5568 5564 5558 5552 5547 5541 5535 5528 5522 5515 5508 5502 5495 5488 5481 5474 5467 5460 5452
5678 5675 5671 5665 5659 5654 5650 5645 5641 5636 5633 5629 5625 5621 5618 5614 5609 5604 5598 5592 5586 5580 5574 5569 5562 5556 5551 5546 5540 5534 5528 5521 5515 5509 5502 5495 5489 5482 5475 5468 5462 5455 5448 5441
5666 5664 5659 5654 5648 5643 5638 5633 5628 5624 5620 5616 5612 5609 5605 5601 5596 5591 5585 5579 5573 5568 5562 5557 5551 5545 5538 5533 5527 5522 5515 5509 5502 5495 5489 5482 5475 5469 5463 5456 5450 5443 5437 5430
5655 5652 5648 5644 5637 5632 5627 5622 5617 5613 5609 5604 5600 5597 5593 5589 5584 5579 5573 5567 5562 5556 5550 5545 5539 5533 5527 5521 5515 5509 5502 5495 5489 5482 5475 5468 5462 5456 5449 5444 5437 5431 5425 5419
5644 5640 5635 5633 5626 5621 5616 5611 5606 5602 5598 5593 5589 5585 5581 5577 5572 5567 5561 5556 5550 5544 5538 5533 5527 5521 5514 5508 5502 5495 5489 5482 5475 5468 5461 5454 5448 5442 5435 5430 5424 5418 5413 5408
5631 5628 5623 5619 5614 5608 5603 5599 5594 5590 5586 5582 5577 5573 5569 5565 5560 5555 5549 5544 5538 5533 5527 5520 5515 5508 5502 5495 5488 5482 5475 5468 5461 5453 5446 5440 5433 5427 5421 5416 5410 5405 5401 5396
5618 5614 5611 5606 5601 5596 5591 5586 5582 5577 5573 5569 5565 5561 5557 5552 5548 5542 5537 5531 5526 5520 5514 5508 5502 5495 5488 5482 5475 5467 5460 5452 5445 5438 5431 5424 5417 5411 5406 5400 5396 5392 5388 5385
5604 5600 5597 5592 5588 5583 5578 5574 5569 5565 5560 5556 5552 5548 5544 5540 5535 5530 5524 5519 5513 5508 5501 5495 5489 5482 5475 5468 5461 5453 5446 5438 5430 5423 5415 5408 5401 5395 5390 5385 5382 5379 5376 5374
5590 5586 5582 5578 5574 5570 5565 5561 5557 5552 5548 5544 5540 5536 5531 5527 5522 5516 5511 5505 5500 5495 5488 5482 5476 5469 5462 5454 5447 5439 5431 5422 5414 5406 5399 5392 5385 5379 5374 5370 5368 5366 5365 5363
5575 5571 5568 5564 5560 5555 5551 5547 5543 5539 5535 5531 5527 5523 5519 5514 5509 5504 5499 5493 5487 5481 5474 5468 5462 5455 5448 5440 5432 5424 5416 5407 5398 5390 5383 5376 5369 5364 5359 5356 5354 5353 5353 5352
5559 5556 5553 5549 5545 5541 5537 5533 5529 5525 5521 5518 5514 5510 5505 5500 5496 5491 5486 5480 5474 5468 5461 5454 5448 5441 5434 5426 5418 5409 5401 5392 5383 5375 5368 5361 5354 5349 5345 5342 5341 5342 5342 5342
5544 5541 5538 5534 5530 5527 5523 5519 5516 5512 5508 5504 5500 5496 5492 5487 5482 5477 5472 5466 5460 5455 5449 5442 5435 5428 5420 5412 5404 5396 5387 5378 5370 5361 5353 5346 5339 5334 5331 5329 5329 5330 5331 5332
5529 5526 5523 5520 5516 5513 5510 5506 5502 5499 5494 5490 5486 5482 5478 5473 5467 5462 5457 5452 5445 5440 5435 5429 5422 5415 5408 5400 5391 5383 5374 5365 5356 5347 5339 5331 5325 5321 5319 5318 5319 5320 5322 5324
5515 5512 5509 5506 5503 5499 5495 5492 5488 5485 5481 5477 5473 5468 5464 5459 5454 5449 5444 5440 5434 5428 5422 5416 5409 5402 5395 5387 5379 5370 5361 5352 5343 5334 5326 5319 5314 5310 5309 5309 5310 5312 5314 5316
5501 5498 5495 5492 5489 5486 5482 5478 5474 5471 5467 5463 5459 5454 5450 5446 5441 5436 5431 5426 5422 5416 5410 5404 5397 5390 5383 5375 5366 5357 5348 5339 5331 5323 5316 5310 5305 5303 5301 5301 5303 5305 5307 5309
5487 5484 5481 5478 5475 5472 5469 5465 5461 5458 5454 5450 5446 5441 5437 5433 5428 5424 5421 5416 5410 5405 5399 5393 5386 5379 5372 5364 5355 5347 5338 5330 5322 5315 5309 5303 5300 5297 5296 5296 5297 5299 5302 5304
5473 5470 5467 5464 5461 5458 5456 5452 5449 5445 5442 5438 5433 5429 5424 5421 5417 5412 5408 5404 5399 5394 5388 5382 5376 5369 5362 5354 5346 5337 5329 5322 5315 5309 5303 5299 5295 5293 5292 5292 5293 5296 5298 5300
5459 5456 5453 5450 5447 5445 5442 5440 5437 5434 5430 5426 5422 5417 5412 5409 5406 5402 5398 5394 5389 5384 5379 5373 5366 5360 5352 5345 5337 5329 5321 5314 5308 5303 5298 5294 5292 5290 5289 5289 5291 5293 5295 5298
5446 5443 5440 5437 5434 5432 5429 5427 5424 5421 5418 5415 5411 5406 5402 5398 5395 5392 5388 5384 5380 5375 5369 5364 5358 5351 5344 5337 5329 5322 5315 5308 5303 5298 5294 5291 5289 5288 5287 5288 5290 5292 5294 5296
5432 5429 5427 5424 5422 5419 5417 5414 5411 5409 5406 5403 5400 5396 5393 5389 5386 5382 5379 5375 5371 5366 5361 5355 5349 5343 5337 5330 5323 5317 5310 5304 5299 5294 5291 5288 5287 5287 5287 5288 5289 5291 5293 5295